Tracking 20475 objects as of 27-Feb-2020
HD Live streaming from Space Station
objects crossing your sky now

COSMOS 1627

Track COSMOS 1627 now!
10-day predictions
COSMOS 1627 is classified as:


NORAD ID: 15505
Int'l Code: 1985-011A
Perigee: 961.0 km
Apogee: 1,021.2 km
Inclination: 82.9 °
Period: 104.8 minutes
Semi major axis: 7362 km
RCS: 3.2863 m2 (large)
Launch date: February 1, 1985
Source: Commonwealth of Independent States (former USSR) (CIS)
Launch site: PLESETSK MISSILE AND SPACE COMPLEX (PKMTR)
aabbcc
Your satellite tracking list
Your tracking list is empty




NASA's NSSDC Master Catalog

Two Line Element Set (TLE):
1 15505U 85011A   20057.24024022  .00000045  00000-0  31964-4 0  9997
2 15505  82.9229 316.7855 0040850 284.5996 186.7929 13.74357683758903
Source of the keplerian elements: AFSPC